Terminal Aerodrome Forecast
Issued by NWS Wilmington, NC

Home | Current Version | Previous Version | Text Only | Print | Product List | Glossary On
Versions: 1 2 3 4 5 6 7 8 9 10 11 12 13 14 15 16 17
000
FTUS42 KILM 191100
TAFFLO
TAF
KFLO 191120Z 1912/2012 03006KT P6SM BKN200
     FM200000 06003KT P6SM BKN120
     FM200900 03003KT P6SM VCSH BKN050=

USA.gov is the U.S. government's official web portal to all federal, state and local government web resources and services.